Edinburg, TX

4:57 AM CST on February 12, 2016 (GMT -0600)
Edinburg

Weather History for KEBG - January, 2014

Change the Weather History Date:

Wednesday, January 8, 2014

  Actual Average (KMFE) Record (KMFE)
Temperature  
Mean Temperature 60 °F 60 °F  
Max Temperature 72 °F 70 °F 91 °F (1989)
Min Temperature 47 °F 50 °F 28 °F (1970)
Degree Days  
Heating Degree Days 6 7  
Month to date heating degree days 56  
Since 1 July heating degree days 293  
Cooling Degree Days 0 2  
Month to date cooling degree days 16  
Year to date cooling degree days 16  
Growing Degree Days 10 (Base 50)    
Moisture  
Dew Point 50 °F    
Average Humidity 73    
Maximum Humidity 84    
Minimum Humidity 58    
Precipitation  
Precipitation 0.00 in 0.04 in 0.39 in (1986)
Month to date precipitation 0.26  
Year to date precipitation 0.26  
Sea Level Pressure  
Sea Level Pressure 30.18 in    
Wind  
Wind Speed 3 mph (SSE)    
Max Wind Speed 17 mph    
Max Gust Speed 22 mph    
Visibility 9 miles    
Events      
T = Trace of Precipitation, MM = Missing Value Source: NWS Daily Summary

Daily Weather History Graph

Daily Weather History Graph

Search for Another Location

Airport or City:

Trip Planner

Search our weather history database for the weather conditions in past years. The results will help you decide how hot, cold, wet, or windy it might be!

Date:

Astronomy

Jan. 08, 2014 Rise Set
Actual Time 7:21 AM CST 5:56 PM CST
Civil Twilight 6:56 AM CST 6:21 PM CST
Nautical Twilight 6:28 AM CST 6:50 PM CST
Astronomical Twilight 6:00 AM CST 7:18 PM CST
Moon 12:33 PM CST (1/8) 12:48 AM CST (1/8)
Length of Visible Light 11h 25m
Length of Day
10h 34m
First Quarter, 56% of the Moon is Illuminated
Jan 8
First Quarter
Jan 15
Full
Jan 23
Last Quarter
Jan 30
New
Feb 6
First Quarter

Hourly Weather History & Observations

Time (CST) Temp. Dew Point Humidity Pressure Visibility Wind Dir Wind Speed Gust Speed Precip Events Conditions
12:15 AM 48.6 °F 39.7 °F 72% 30.31 in 10.0 mi Calm Calm - N/A   Overcast
12:35 AM 48.7 °F 39.6 °F 71% 30.30 in 10.0 mi Calm Calm - N/A   Overcast
12:55 AM 48.9 °F 39.9 °F 71% 30.29 in 10.0 mi Calm Calm - N/A   Overcast
1:15 AM 49.1 °F 40.1 °F 71% 30.29 in 10.0 mi West 3.5 mph - N/A   Overcast
1:35 AM 48.7 °F 40.3 °F 73% 30.28 in 10.0 mi Calm Calm - N/A   Overcast
1:55 AM 48.7 °F 40.5 °F 73% 30.27 in 10.0 mi Calm Calm - N/A   Overcast
2:15 AM 49.1 °F 41.0 °F 74% 30.27 in 10.0 mi Calm Calm - N/A   Overcast
2:35 AM 49.1 °F 41.0 °F 74% 30.25 in 10.0 mi Calm Calm - N/A   Overcast
2:55 AM 48.7 °F 41.2 °F 75% 30.25 in 10.0 mi Calm Calm - N/A   Overcast
3:15 AM 49.1 °F 41.5 °F 75% 30.25 in 10.0 mi Calm Calm - N/A   Overcast
3:35 AM 48.9 °F 41.7 °F 76% 30.25 in 10.0 mi Calm Calm - N/A   Overcast
3:55 AM 48.7 °F 41.9 °F 77% 30.24 in 10.0 mi Calm Calm - N/A   Overcast
4:15 AM 48.7 °F 41.9 °F 77% 30.24 in 10.0 mi Calm Calm - N/A   Overcast
4:55 AM 48.2 °F 42.4 °F 80% 30.23 in 10.0 mi Calm Calm - N/A   Overcast
5:15 AM 47.8 °F 42.8 °F 83% 30.22 in 7.0 mi Calm Calm - N/A   Overcast
5:35 AM 47.7 °F 43.0 °F 84% 30.22 in 7.0 mi Calm Calm - N/A   Overcast
5:55 AM 47.8 °F 43.2 °F 84% 30.22 in 7.0 mi West 3.5 mph - N/A   Overcast
6:15 AM 47.7 °F 43.0 °F 84% 30.21 in 7.0 mi Calm Calm - N/A   Overcast
6:35 AM 47.8 °F 43.2 °F 84% 30.22 in 10.0 mi West 3.5 mph - N/A   Overcast
6:55 AM 48.2 °F 43.3 °F 83% 30.21 in 10.0 mi Calm Calm - N/A   Overcast
7:15 AM 48.2 °F 43.7 °F 84% 30.21 in 7.0 mi Calm Calm - N/A   Overcast
7:35 AM 48.2 °F 43.7 °F 84% 30.20 in 7.0 mi Calm Calm - N/A   Overcast
7:55 AM 48.4 °F 43.7 °F 84% 30.21 in 7.0 mi Calm Calm - N/A   Overcast
8:15 AM 48.9 °F 44.1 °F 83% 30.23 in 7.0 mi Calm Calm - N/A   Overcast
8:35 AM 49.3 °F 44.2 °F 83% 30.23 in 7.0 mi Calm Calm - N/A   Overcast
8:55 AM 50.0 °F 44.2 °F 81% 30.24 in 7.0 mi West 3.5 mph - N/A   Overcast
9:15 AM 50.4 °F 44.8 °F 81% 30.24 in 7.0 mi Calm Calm - N/A   Overcast
9:35 AM 51.1 °F 45.3 °F 81% 30.25 in 5.0 mi Calm Calm - N/A   Haze
9:55 AM 52.0 °F 45.7 °F 79% 30.25 in 7.0 mi Calm Calm - N/A   Overcast
10:15 AM 53.1 °F 46.4 °F 78% 30.25 in 7.0 mi Calm Calm - N/A   Overcast
10:35 AM 54.3 °F 46.9 °F 76% 30.25 in 7.0 mi Calm Calm - N/A   Overcast
10:55 AM 54.9 °F 47.3 °F 76% 30.24 in 7.0 mi Calm Calm - N/A   Overcast
11:15 AM 56.8 °F 48.2 °F 73% 30.23 in 7.0 mi Calm Calm - N/A   Overcast
11:35 AM 58.3 °F 49.3 °F 72% 30.22 in 7.0 mi Calm Calm - N/A   Overcast
11:55 AM 59.2 °F 49.5 °F 70% 30.20 in 7.0 mi Calm Calm - N/A   Overcast
12:15 PM 61.0 °F 50.0 °F 67% 30.18 in 10.0 mi SSW 4.6 mph - N/A   Overcast
12:35 PM 63.1 °F 50.9 °F 64% 30.17 in 10.0 mi South 4.6 mph - N/A   Overcast
12:55 PM 63.0 °F 51.1 °F 65% 30.15 in 10.0 mi SSW 6.9 mph - N/A   Overcast
1:15 PM 65.1 °F 52.2 °F 63% 30.13 in 10.0 mi SSE 5.8 mph - N/A   Overcast
1:35 PM 67.3 °F 54.3 °F 63% 30.12 in 10.0 mi SE 8.1 mph - N/A   Mostly Cloudy
1:55 PM 69.1 °F 55.6 °F 62% 30.11 in 10.0 mi SSE 16.1 mph - N/A   Mostly Cloudy
2:15 PM 70.9 °F 55.9 °F 59% 30.11 in 10.0 mi SSE 13.8 mph 18.4 mph N/A   Mostly Cloudy
2:35 PM 70.0 °F 56.3 °F 62% 30.10 in 10.0 mi SE 15.0 mph 19.6 mph N/A   Overcast
2:55 PM 69.3 °F 56.5 °F 64% 30.09 in 10.0 mi SSE 15.0 mph 19.6 mph N/A   Mostly Cloudy
3:15 PM 70.2 °F 57.4 °F 64% 30.09 in 10.0 mi SE 13.8 mph - N/A   Scattered Clouds
3:35 PM 69.8 °F 57.6 °F 65% 30.08 in 10.0 mi SE 11.5 mph - N/A   Mostly Cloudy
3:55 PM 70.0 °F 56.8 °F 63% 30.08 in 10.0 mi SE 15.0 mph - N/A   Overcast
4:15 PM 72.0 °F 56.7 °F 58% 30.07 in 10.0 mi SSE 15.0 mph 18.4 mph N/A   Mostly Cloudy
4:35 PM 72.3 °F 57.4 °F 59% 30.07 in 10.0 mi SE 16.1 mph 19.6 mph N/A   Mostly Cloudy
4:55 PM 71.2 °F 57.4 °F 61% 30.07 in 10.0 mi SE 17.3 mph 21.9 mph N/A   Overcast
5:15 PM 69.4 °F 57.0 °F 65% 30.07 in 10.0 mi SE 12.7 mph 19.6 mph N/A   Scattered Clouds
5:35 PM 68.4 °F 56.8 °F 67% 30.07 in 10.0 mi SE 12.7 mph - N/A   Clear
5:55 PM 67.1 °F 56.7 °F 69% 30.07 in 10.0 mi SE 12.7 mph - N/A   Clear
6:15 PM 66.4 °F 56.8 °F 71% 30.08 in 10.0 mi SE 12.7 mph - N/A   Clear
6:35 PM 65.5 °F 57.0 °F 74% 30.08 in 10.0 mi SE 13.8 mph - N/A   Clear
6:55 PM 65.3 °F 57.2 °F 75% 30.08 in 10.0 mi SE 10.4 mph - N/A   Clear
7:15 PM 64.9 °F 57.2 °F 76% 30.09 in 10.0 mi SE 10.4 mph - N/A   Scattered Clouds
7:35 PM 65.7 °F 57.4 °F 75% 30.10 in 10.0 mi SSE 9.2 mph - N/A   Mostly Cloudy
7:55 PM 66.4 °F 57.4 °F 73% 30.11 in 10.0 mi SSE 11.5 mph 17.3 mph N/A   Overcast
8:15 PM 65.7 °F 57.2 °F 74% 30.12 in 10.0 mi SSE 8.1 mph - N/A   Overcast
8:35 PM 66.2 °F 57.2 °F 73% 30.13 in 10.0 mi SSE 8.1 mph - N/A   Overcast
8:55 PM 66.7 °F 57.2 °F 71% 30.13 in 10.0 mi SSE 10.4 mph - N/A   Overcast
9:15 PM 66.2 °F 56.8 °F 72% 30.13 in 10.0 mi SE 8.1 mph - N/A   Overcast
9:35 PM 64.8 °F 56.8 °F 75% 30.14 in 10.0 mi SE 5.8 mph - N/A   Overcast
9:55 PM 65.1 °F 56.8 °F 75% 30.14 in 10.0 mi SSE 8.1 mph - N/A   Overcast
10:15 PM 64.8 °F 56.8 °F 75% 30.14 in 10.0 mi SE 6.9 mph - N/A   Overcast
10:35 PM 65.3 °F 56.8 °F 74% 30.14 in - SSE 5.8 mph - N/A   Overcast
10:55 PM 64.4 °F 56.8 °F 76% 30.14 in 10.0 mi SE 5.8 mph - N/A   Overcast
11:15 PM 63.9 °F 57.0 °F 78% 30.13 in 10.0 mi SE 5.8 mph - N/A   Overcast
11:35 PM 63.0 °F 56.7 °F 80% 30.13 in 10.0 mi ESE 5.8 mph - N/A   Overcast
11:55 PM 62.2 °F 56.3 °F 81% 30.12 in 10.0 mi SSE 6.9 mph - N/A   Mostly Cloudy